Weather History for KSOP - May, 2013

Change the Weather History Date:

Sunday, May 5, 2013

  Actual Average Record
Temperature  
Mean Temperature 56 °F -  
Max Temperature 60 °F 76 °F 90 °F (1981)
Min Temperature 51 °F 53 °F 37 °F (1997)
Degree Days  
Heating Degree Days 10    
Growing Degree Days 6 (Base 50)    
Moisture  
Dew Point 49 °F    
Average Humidity 78    
Maximum Humidity 88    
Minimum Humidity 67    
Precipitation  
Precipitation 0.10 in - - ()
Sea Level Pressure  
Sea Level Pressure 29.99 in    
Wind  
Wind Speed 13 mph (ENE)    
Max Wind Speed 17 mph    
Max Gust Speed 24 mph    
Visibility 10 miles    
Events      
Averages and records for this station are not official NWS values.
T = Trace of Precipitation, MM = Missing Value Source: NWS Daily Summary

Daily Weather History Graph

Daily Weather History Graph

Search for Another Location

Airport or City:

Trip Planner

Search our weather history database for the weather conditions in past years. The results will help you decide how hot, cold, wet, or windy it might be!

Date:

Astronomy

May. 05, 2013 Rise Set
Actual Time 6:22 AM EDT 8:06 PM EDT
Civil Twilight 5:54 AM EDT 8:34 PM EDT
Nautical Twilight 5:21 AM EDT 9:07 PM EDT
Astronomical Twilight 4:46 AM EDT 9:42 PM EDT
Moon 3:42 AM EDT (5/5) 4:12 PM EDT (5/5)
Length of Visible Light 14h 39m
Length of Day
13h 44m
Waning Crescent, 18% of the Moon is Illuminated
May 5
Waning Crescent
May 9
New
May 18
First Quarter
May 25
Full
May 31
Last Quarter

Hourly Weather History & Observations

Time (EDT) Temp. Dew Point Humidity Pressure Visibility Wind Dir Wind Speed Gust Speed Precip Events Conditions
12:15 AM 55.4 °F 46.4 °F 72% 30.06 in 10.0 mi East 17.3 mph 20.7 mph N/A   Overcast
12:35 AM 55.4 °F 46.4 °F 72% 30.06 in 10.0 mi East 15.0 mph - N/A   Overcast
12:55 AM 55.4 °F 46.4 °F 72% 30.06 in 10.0 mi ENE 9.2 mph - N/A   Overcast
1:15 AM 55.4 °F 46.4 °F 72% 30.06 in 10.0 mi ENE 11.5 mph 18.4 mph N/A   Overcast
1:35 AM 55.4 °F 44.6 °F 67% 30.05 in 10.0 mi ENE 13.8 mph 21.9 mph N/A   Overcast
1:55 AM 55.4 °F 44.6 °F 67% 30.04 in 10.0 mi ENE 12.7 mph 21.9 mph N/A   Overcast
2:15 AM 53.6 °F 44.6 °F 72% 30.04 in 10.0 mi ENE 8.1 mph - N/A   Scattered Clouds
2:35 AM 53.6 °F 44.6 °F 72% 30.03 in 10.0 mi ENE 10.4 mph - N/A   Scattered Clouds
2:55 AM 53.6 °F 46.4 °F 77% 30.02 in 10.0 mi ENE 13.8 mph 18.4 mph N/A   Mostly Cloudy
3:15 AM 53.6 °F 44.6 °F 72% 30.02 in 10.0 mi ENE 11.5 mph - N/A   Overcast
3:35 AM 53.6 °F 44.6 °F 72% 30.01 in 10.0 mi ENE 15.0 mph - N/A   Overcast
3:55 AM 53.6 °F 44.6 °F 72% 30.02 in 10.0 mi ENE 12.7 mph 20.7 mph N/A   Overcast
4:15 AM 53.6 °F 44.6 °F 72% 30.01 in 10.0 mi ENE 9.2 mph 19.6 mph N/A   Overcast
4:35 AM 53.6 °F 44.6 °F 72% 30.01 in 10.0 mi ENE 12.7 mph 17.3 mph N/A   Overcast
4:55 AM 53.6 °F 44.6 °F 72% 30.00 in 10.0 mi East 15.0 mph 18.4 mph N/A   Overcast
5:15 AM 51.8 °F 44.6 °F 76% 30.00 in 10.0 mi ENE 16.1 mph 23.0 mph N/A   Overcast
5:35 AM 51.8 °F 44.6 °F 76% 30.00 in 10.0 mi NE 9.2 mph - N/A   Overcast
5:55 AM 51.8 °F 44.6 °F 76% 30.00 in 10.0 mi ENE 8.1 mph - N/A   Overcast
6:15 AM 51.8 °F 44.6 °F 76% 30.00 in 10.0 mi ENE 15.0 mph 19.6 mph N/A   Overcast
6:35 AM 51.8 °F 44.6 °F 76% 30.00 in 10.0 mi ENE 11.5 mph 20.7 mph N/A   Overcast
6:55 AM 51.8 °F 44.6 °F 76% 30.01 in 10.0 mi ENE 10.4 mph 24.2 mph N/A   Overcast
7:15 AM 51.8 °F 44.6 °F 76% 30.02 in 10.0 mi ENE 16.1 mph 19.6 mph N/A   Overcast
7:35 AM 51.8 °F 44.6 °F 76% 30.02 in 10.0 mi ENE 16.1 mph - N/A   Overcast
7:55 AM 51.8 °F 44.6 °F 76% 30.02 in 10.0 mi ENE 13.8 mph 18.4 mph N/A   Overcast
8:15 AM 51.8 °F 44.6 °F 76% 30.02 in 10.0 mi ENE 15.0 mph - N/A   Overcast
8:35 AM 51.8 °F 44.6 °F 76% 30.03 in 10.0 mi East 11.5 mph - N/A   Overcast
8:55 AM 51.8 °F 46.4 °F 82% 30.03 in 10.0 mi East 11.5 mph 18.4 mph N/A   Overcast
9:15 AM 51.8 °F 46.4 °F 82% 30.03 in 10.0 mi ENE 16.1 mph - N/A   Overcast
9:35 AM 51.8 °F 46.4 °F 82% 30.03 in 10.0 mi East 15.0 mph 23.0 mph N/A   Overcast
9:55 AM 53.6 °F 46.4 °F 77% 30.02 in 10.0 mi ENE 17.3 mph 23.0 mph N/A   Overcast
10:15 AM 53.6 °F 46.4 °F 77% 30.02 in 10.0 mi ENE 17.3 mph 23.0 mph N/A   Overcast
10:35 AM 53.6 °F 46.4 °F 77% 30.02 in 10.0 mi ENE 12.7 mph - N/A   Overcast
10:55 AM 53.6 °F 46.4 °F 77% 30.02 in 9.0 mi East 17.3 mph 20.7 mph N/A   Overcast
11:15 AM 53.6 °F 46.4 °F 77% 30.02 in 10.0 mi ENE 15.0 mph 21.9 mph N/A   Overcast
11:35 AM 55.4 °F 48.2 °F 77% 30.02 in 10.0 mi ENE 13.8 mph 20.7 mph N/A   Overcast
11:55 AM 55.4 °F 48.2 °F 77% 30.02 in 10.0 mi East 13.8 mph 18.4 mph N/A   Overcast
12:15 PM 55.4 °F 48.2 °F 77% 30.01 in 10.0 mi ENE 15.0 mph 18.4 mph N/A   Overcast
12:35 PM 57.2 °F 48.2 °F 72% 30.01 in 10.0 mi East 12.7 mph 18.4 mph N/A   Overcast
12:55 PM 57.2 °F 48.2 °F 72% 30.01 in 10.0 mi East 15.0 mph - N/A   Overcast
1:15 PM 59.0 °F 50.0 °F 72% 30.01 in 10.0 mi East 11.5 mph - N/A   Overcast
1:35 PM 59.0 °F 50.0 °F 72% 30.00 in 10.0 mi ENE 13.8 mph 21.9 mph N/A   Overcast
2:15 PM 59.0 °F 51.8 °F 77% 29.99 in 10.0 mi East 12.7 mph 19.6 mph N/A   Overcast
2:35 PM 59.0 °F 51.8 °F 77% 29.99 in 10.0 mi East 13.8 mph 19.6 mph N/A   Overcast
2:55 PM 59.0 °F 53.6 °F 82% 29.98 in 9.0 mi ENE 11.5 mph - N/A   Overcast
3:15 PM 59.0 °F 53.6 °F 82% 29.98 in 8.0 mi ENE 11.5 mph - 0.02 in   Overcast
3:35 PM 59.0 °F 53.6 °F 82% 29.96 in 10.0 mi ENE 12.7 mph 16.1 mph 0.04 in   Overcast
3:55 PM 59.0 °F 53.6 °F 82% 29.96 in 10.0 mi ENE 12.7 mph - 0.04 in   Overcast
4:15 PM 59.0 °F 53.6 °F 82% 29.96 in 10.0 mi ENE 11.5 mph - N/A   Overcast
4:35 PM 59.0 °F 55.4 °F 88% 29.95 in 10.0 mi ENE 11.5 mph - N/A   Overcast
4:55 PM 60.8 °F 55.4 °F 82% 29.94 in 10.0 mi ENE 12.7 mph - N/A   Overcast
5:15 PM 60.8 °F 55.4 °F 82% 29.93 in 10.0 mi ENE 13.8 mph - N/A   Overcast
5:35 PM 60.8 °F 55.4 °F 82% 29.94 in 10.0 mi East 12.7 mph 18.4 mph N/A   Overcast
5:55 PM 60.8 °F 55.4 °F 82% 29.94 in 10.0 mi East 8.1 mph - N/A   Overcast
6:15 PM 60.8 °F 55.4 °F 82% 29.93 in 10.0 mi East 12.7 mph 21.9 mph N/A   Overcast
6:35 PM 60.8 °F 55.4 °F 82% 29.93 in 10.0 mi East 13.8 mph - N/A   Overcast
6:55 PM 60.8 °F 55.4 °F 82% 29.93 in 10.0 mi East 13.8 mph 18.4 mph N/A   Overcast
7:15 PM 60.8 °F 55.4 °F 82% 29.93 in 8.0 mi East 12.7 mph 20.7 mph N/A   Overcast
7:35 PM 60.8 °F 55.4 °F 82% 29.93 in 10.0 mi East 10.4 mph - N/A   Overcast
8:15 PM 59.0 °F 55.4 °F 88% 29.94 in 5.0 mi East 9.2 mph 21.9 mph 0.02 in   Overcast
8:35 PM 59.0 °F 55.4 °F 88% 29.95 in 9.0 mi East 9.2 mph - 0.04 in   Overcast
8:55 PM 59.0 °F 55.4 °F 88% 29.95 in 10.0 mi East 8.1 mph - 0.04 in   Overcast
9:15 PM 59.0 °F 55.4 °F 88% 29.94 in 10.0 mi East 15.0 mph 19.6 mph N/A   Overcast
9:35 PM 59.0 °F 55.4 °F 88% 29.95 in 10.0 mi East 10.4 mph 18.4 mph N/A   Overcast
9:55 PM 59.0 °F 55.4 °F 88% 29.94 in 10.0 mi East 16.1 mph - N/A   Overcast
10:35 PM 59.0 °F 55.4 °F 88% 29.95 in 10.0 mi East 10.4 mph 20.7 mph N/A   Overcast
10:55 PM 59.0 °F 55.4 °F 88% 29.96 in 10.0 mi ESE 6.9 mph - N/A   Overcast
11:15 PM 59.0 °F 55.4 °F 88% 29.96 in 9.0 mi East 11.5 mph 20.7 mph N/A   Overcast
11:35 PM 59.0 °F 53.6 °F 82% 29.96 in 9.0 mi East 12.7 mph 19.6 mph 0.01 in   Overcast
11:55 PM 57.2 °F 53.6 °F 88% 29.96 in 10.0 mi East 6.9 mph 17.3 mph 0.02 in   Overcast